ARIANE 1 DEB

Satellite information

Favourite Embed

Satellite Type and Status

DEBRISIN ORBIT

Key statistics

Satellite ARIANE 1 DEB at a glance.

Uptime

14442

Days in orbit

Revolutions

≈ 14.7

Per day

Orbit

SSO

Sun Synchronous Orbit

Inclination

98.0

Latest

Satellite identification and parameters

Extended collection of information and parameters for ARIANE 1 DEB.

Object identification

Identified? True

Debris? True

Object name: ARIANE 1 DEB

International designator: 1986-019AG

Object number (NORAD): 17153

Object ID (CCSDS): 17153

Country: FRANCE (FR)

Current information (Y/N): Y

RCS size: MEDIUM

Orbital parameters

Period: 98.283 minutes

Inclination: 98.0004 deg

SMA: 7054.711 km

Apoapsis: 687.724 km

Periapsis: 665.429 km

RAAN: 255.7272 deg

Eccentricy: 0.00158014

Argument of periapsis: 89.3905 deg

Mean anomaly: 270.9109 deg

Mean motion: 14.65156112 rev/day

Mean motion (dot): 0.00005377 rev/day2

B* drag term: 0.0010063504 1/REarth

Two-line elements (TLE)

Creation date: Sept. 7, 2025, 3:09 a.m.

Reference frame: TEME

Reference center: EARTH

Epoch: Sept. 6, 2025, 10:06 p.m. UTC

TLE line 0: 0 ARIANE 1 DEB

TLE line 1: 1 17153U 86019AG 25249.92138403 .00005377 00000-0 10064-2 0 9998

TLE line 2: 2 17153 98.0004 255.7272 0015801 89.3905 270.9109 14.65156112993763

Live tracking on map

Real-time ground track for satellite ARIANE 1 DEB.

In-orbit conjunctions

A list of the most updated potential collisions computed for object ARIANE 1 DEB.

Target Orbit TCA Probability of collision Miss distance Type
DELTA 1 DEB SSO 2024-11-12 17:18:38 0.005651423 255.0 (m) DEBRIS
CZ-6A DEB SSO 2024-11-12 01:14:35 0.0001528069 959.0 (m) DEBRIS

Associated space launch

SPOT 1 is a French Earth observation satellite. Viking is Sweden's first satellite.

ARIANE 1 DEB was lifted into orbit during the mission ‘Ariane 1 | SPOT 1 & Viking’, on board a Ariane 1 space rocket.

The launch took place on Feb. 22, 1986, 1:44 a.m. from Ariane Launch Area 1 (ELV).

For more information about the launch, click the button.

Launch to space Ariane 1 | SPOT 1 & Viking
Ariane 1 | SPOT 1 & Viking

Agency: N/A

Status: Launch Successful

Launch date: Feb. 22, 1986, 1:44 a.m. UTC

Rocket: Ariane 1

Launch pad: Ariane Launch Area 1 (ELV)

Location: Guiana Space Centre, French Guiana

...

Latest news about this satellite

There are no fresh news available about this satellite. Check back as we update our databases every day.


Newsletter sign-up

Weekly statistics, charts and insights to help you stay on top of the space industry.